GFSSE_925_thetae_366.txt.gz
Theta_e
354 353 350 351 353 350 351 352 346 344 344 344 347 349 351 351 352 352 352 352 353 351 350 351 351 351 350 350 352 346 346 345 342 345 347 341 350 345 346 350 349 352 352
354 354 350 350 351 349 352 349 344 340 341 342 343 350 352 351 352 352 347 348 352 351 351 350 351 351 351 351 350 352 345 345 346 348 346 346 344 349 350 350 350 350 350
353 354 353 350 352 349 343 343 343 346 344 344 340 348 343 343 345 348 349 350 350 350 351 350 351 351 351 349 350 349 347 345 344 348 348 349 347 350 352 349 345 344 347
352 353 354 351 351 348 345 344 343 347 351 347 342 340 342 343 344 351 350 351 352 352 352 351 350 351 352 351 349 349 348 343 341 347 340 333 344 349 353 351 351 349 349
352 352 354 349 349 348 348 348 347 345 349 345 342 342 343 345 346 352 351 352 352 352 351 352 352 352 352 351 350 348 345 343 345 347 346 336 338 344 346 347 346 346 350
351 354 350 351 350 349 350 350 349 352 351 348 347 351 349 348 351 351 350 352 347 352 347 351 353 354 349 348 350 348 342 343 345 351 350 345 342 343 342 340 341 342 347
353 355 349 351 353 353 353 353 353 353 352 351 353 353 351 351 350 350 349 348 351 351 347 352 349 352 347 345 345 345 342 341 347 349 349 348 346 341 343 350 348 343 345
355 353 351 351 352 354 354 354 354 353 352 352 351 352 351 352 348 345 347 348 347 351 349 350 351 349 349 349 344 343 341 339 349 350 348 350 347 345 343 345 348 345 345
351 350 351 352 353 354 354 353 352 351 351 351 353 349 353 348 347 344 348 349 348 349 343 340 346 350 351 348 342 339 341 341 346 345 347 350 347 345 343 344 347 346 349
348 350 349 351 352 351 352 352 352 350 350 350 354 353 351 350 344 342 344 347 347 351 352 353 349 345 344 343 342 341 340 339 347 341 349 350 346 340 340 344 344 343 343
348 348 349 352 351 350 354 350 347 346 346 353 351 349 344 351 350 353 351 350 347 345 345 344 341 342 344 345 347 346 344 346 351 349 349 346 344 338 340 342 344 341 343
345 349 350 351 352 349 351 354 352 352 352 348 352 352 346 352 352 354 352 349 346 341 341 342 342 344 347 345 342 347 346 349 349 349 349 346 343 338 338 342 344 341 343
345 347 352 352 351 351 348 352 355 353 351 351 352 351 351 351 350 352 352 352 349 341 347 346 351 351 352 351 349 351 349 348 348 350 347 346 342 337 337 338 345 343 341
345 345 344 349 350 350 348 353 349 346 350 350 351 353 349 353 350 351 352 355 352 352 351 351 354 345 351 352 352 350 349 348 347 350 348 346 345 339 340 336 341 344 342
345 344 344 345 347 348 346 346 348 349 350 350 352 348 349 352 349 350 349 352 352 350 349 351 352 353 352 354 351 351 351 351 346 346 348 347 345 341 341 340 340 344 344
345 345 345 345 347 348 348 350 347 349 348 346 351 351 348 350 352 350 350 350 349 348 349 350 352 350 351 353 352 353 352 351 347 347 349 348 347 343 340 339 338 341 345
345 345 346 345 348 350 350 349 351 349 348 348 346 350 351 348 350 349 349 350 350 350 349 352 354 352 352 351 351 340 353 354 350 348 348 349 348 347 345 342 340 337 339
346 346 346 346 347 350 351 351 351 350 349 348 347 346 350 352 351 350 348 350 349 350 351 351 350 351 353 351 351 348 352 350 350 349 350 349 349 348 347 342 339 340 341
348 349 349 348 347 350 352 351 351 351 349 348 347 346 347 349 351 350 352 350 346 350 350 351 351 351 350 349 349 351 345 348 343 342 346 351 349 350 350 350 348 344 342
345 347 348 348 348 350 353 352 352 351 350 349 348 346 345 349 350 351 351 351 349 348 350 351 352 352 352 352 350 350 347 345 342 337 346 350 348 349 350 352 351 347 347
348 350 351 352 351 352 355 356 355 353 351 351 350 348 345 345 348 348 349 351 349 347 351 352 352 355 351 350 350 344 349 346 346 346 343 349 349 348 347 351 349 350 350
352 353 355 356 356 353 355 354 356 355 352 351 352 350 347 344 345 351 350 349 348 348 347 349 351 353 355 354 353 353 352 350 348 347 346 346 346 341 346 348 351 353 353
352 354 356 356 357 359 357 356 356 354 355 356 352 351 352 347 347 346 347 349 347 345 350 352 349 352 352 351 350 351 352 355 349 348 346 341 338 337 335 345 346 344 352
353 354 354 357 356 360 360 359 360 358 358 357 355 353 349 353 351 350 349 348 349 345 345 346 351 354 353 353 351 352 351 349 352 348 346 345 343 336 337 342 339 344 346
353 354 355 357 360 359 362 363 362 362 361 360 359 357 352 352 353 352 353 355 351 352 350 346 349 349 353 351 352 351 350 350 351 350 348 348 342 339 337 341 348 345 344
349 352 355 357 359 361 361 364 361 362 365 366 364 364 362 357 356 353 353 354 355 356 356 357 352 352 351 352 351 351 352 350 350 347 348 348 348 347 347 346 340 340 338

GFSSE_925_thetae_369.txt.gz
Theta_e
349 346 345 345 351 353 352 345 339 334 335 333 333 337 348 349 350 350 349 351 347 350 350 351 350 350 351 349 345 342 344 342 342 343 341 345 341 336 343 347 349 347 349
347 348 345 347 347 352 352 343 340 336 340 339 338 348 348 350 352 351 351 352 352 351 350 351 351 351 350 347 349 344 346 342 342 345 345 346 345 345 348 351 345 351 348
350 348 347 348 348 351 348 344 340 337 342 342 340 345 344 347 346 350 350 350 351 350 350 351 351 351 350 347 348 347 343 346 346 345 344 342 345 346 347 351 347 349 343
349 347 349 350 349 346 348 343 342 343 346 345 343 342 341 341 347 350 351 351 352 352 351 351 351 352 351 346 348 348 345 343 351 347 333 340 339 346 347 347 348 351 349
350 348 349 350 348 343 342 342 341 346 347 345 343 340 342 344 347 349 351 351 352 352 351 352 351 353 349 345 344 347 347 344 349 349 331 336 340 343 347 346 348 347 347
354 349 349 349 348 347 345 344 343 344 344 342 342 343 345 347 343 348 348 351 347 352 346 351 353 352 347 345 344 344 342 343 347 346 344 341 341 340 344 350 351 349 343
354 348 349 349 347 347 346 346 348 348 348 348 346 346 348 347 347 349 349 350 346 351 347 350 351 352 348 345 346 344 341 341 347 346 342 340 334 341 343 347 344 346 341
353 346 348 348 348 346 346 347 348 350 351 351 348 348 347 347 350 345 343 344 345 347 348 346 349 347 344 343 342 343 340 342 348 348 346 344 341 340 343 346 342 343 343
352 343 344 350 352 351 352 352 350 351 353 351 351 353 349 348 345 343 345 344 344 345 345 339 339 340 344 345 344 341 341 341 341 346 347 346 343 344 343 342 345 343 343
351 345 337 339 341 344 346 341 341 342 347 352 350 347 352 347 345 345 344 340 339 337 340 344 348 348 345 345 344 343 341 340 339 346 347 347 346 343 343 341 342 342 344
349 342 338 338 338 336 336 340 345 346 345 345 346 348 350 346 344 341 343 344 344 342 343 345 342 343 345 344 345 346 341 340 348 349 348 349 345 342 340 342 339 343 344
350 348 347 346 345 349 350 346 346 347 345 343 339 344 343 347 351 350 351 350 349 341 341 342 343 345 347 345 346 344 346 348 349 350 347 349 345 339 340 342 341 342 343
349 349 350 350 349 351 354 352 347 346 344 344 349 350 350 351 352 351 353 351 349 346 339 339 348 349 350 351 348 347 349 348 349 349 348 347 344 338 339 340 341 340 341
347 349 351 350 351 349 350 352 351 352 351 350 350 350 351 352 351 351 353 353 351 346 348 350 350 345 347 348 349 349 349 350 350 349 348 346 343 338 337 336 340 340 340
344 349 351 351 349 349 349 350 353 353 352 351 351 350 350 349 353 351 352 353 353 351 350 352 352 352 351 350 342 350 349 351 350 349 347 346 344 341 339 336 336 342 342
344 344 347 351 350 351 350 351 351 348 350 350 351 350 347 344 350 354 353 351 353 352 350 351 353 351 340 352 350 343 349 351 350 349 348 346 346 344 340 340 337 338 340
345 344 345 346 347 347 347 348 348 347 348 351 352 352 348 348 350 351 349 350 349 349 348 352 352 350 347 344 350 349 348 350 350 348 350 349 347 346 345 340 338 338 340
345 345 345 345 345 346 349 348 349 346 347 350 348 348 350 349 348 349 349 349 349 350 350 351 350 349 349 351 352 349 340 350 347 348 349 348 350 349 348 345 342 340 339
345 345 346 346 347 347 347 349 349 347 348 348 348 347 347 351 351 349 347 347 347 349 348 351 351 350 352 354 351 348 349 343 344 346 347 349 348 350 348 348 346 342 339
347 345 346 345 347 347 349 350 350 348 351 350 347 347 347 348 350 350 349 348 352 351 348 345 349 351 355 352 351 352 349 346 345 342 344 343 343 350 350 350 349 346 345
348 348 349 348 349 348 350 351 351 351 350 349 348 347 346 347 348 348 349 349 347 349 349 349 351 354 354 352 349 350 347 347 345 341 337 344 348 334 346 349 348 350 347
348 346 347 349 347 351 351 352 352 352 352 351 350 350 349 348 348 348 348 348 349 349 349 346 347 351 352 353 351 350 347 347 346 346 346 344 342 338 349 347 348 351 349
347 348 347 348 350 351 353 354 355 355 354 353 352 351 351 350 346 345 346 347 348 348 348 348 347 346 350 353 352 350 346 346 345 348 347 347 344 344 345 343 346 350 348
351 349 351 351 351 353 352 354 354 355 355 354 353 353 354 352 351 345 345 346 347 350 348 345 346 350 351 352 352 351 350 348 345 343 348 347 347 345 342 340 337 344 342
350 354 352 353 354 355 357 355 356 358 356 355 356 355 354 355 351 351 350 347 347 347 347 348 346 345 349 352 353 351 350 347 349 346 347 345 345 342 341 337 337 340 343
351 353 355 356 354 356 357 358 357 357 359 360 359 358 365 362 353 352 351 352 351 350 350 350 349 348 347 348 350 351 350 348 347 346 343 342 343 343 337 343 337 345 344

GFSSE_925_thetae_375.txt.gz
Theta_e
349 350 350 353 353 351 352 351 350 350 349 345 342 343 345 346 347 348 350 350 350 348 348 348 344 344 337 332 332 333 335 336 335 333 331 330 332 335 348 349 343 339 349
348 350 351 350 351 350 351 350 348 348 348 348 346 346 348 348 348 349 350 350 349 350 350 348 344 340 343 337 337 334 335 337 335 330 330 329 332 338 344 346 347 345 343
348 348 350 349 350 350 351 350 346 346 348 348 349 351 348 351 352 352 350 349 350 350 351 350 349 343 343 343 344 338 337 338 338 336 332 331 334 343 348 346 348 346 346
347 347 350 348 349 350 350 349 346 348 349 348 348 351 343 343 350 352 352 351 350 350 352 351 351 351 347 344 343 346 346 344 348 341 340 340 342 344 346 348 347 348 346
345 344 349 348 348 350 350 348 345 347 350 349 346 350 349 350 350 350 351 351 351 350 350 351 351 352 351 350 348 343 343 343 344 341 340 342 342 344 345 346 347 348 347
342 344 346 351 351 351 346 343 346 348 350 348 346 345 349 351 350 350 350 351 352 351 350 350 351 353 351 351 351 350 348 350 350 344 336 339 343 345 351 351 350 345 346
345 347 350 350 351 350 344 340 346 348 349 347 344 348 349 351 351 351 351 351 351 352 349 350 352 353 351 350 350 349 349 350 346 344 341 334 341 345 348 350 351 349 347
344 347 350 350 348 344 342 349 350 350 351 350 347 349 350 351 350 351 351 350 351 351 351 350 352 353 349 350 350 349 346 350 346 343 343 339 340 343 343 347 349 345 346
345 347 348 349 349 350 351 352 352 352 352 351 349 352 352 351 351 351 351 351 351 351 352 351 351 353 342 345 345 345 345 346 347 346 344 343 337 340 339 341 348 344 345
347 346 346 346 346 350 351 351 350 351 353 351 350 352 351 351 352 351 349 346 350 351 352 352 352 351 344 340 340 344 343 342 341 342 345 345 339 338 339 338 341 347 348
350 348 347 346 346 348 350 351 352 352 352 352 351 351 353 351 351 349 348 344 351 351 352 350 348 346 344 344 344 342 341 342 342 341 345 345 344 342 337 335 341 344 342
351 348 346 347 347 347 349 349 350 349 350 348 346 349 351 347 347 345 345 344 348 351 351 349 347 345 345 344 344 345 345 345 342 342 345 344 345 344 343 341 342 345 343
349 347 346 347 346 346 346 345 349 345 345 348 347 344 346 346 344 343 342 343 346 351 350 350 345 345 346 347 348 347 345 343 342 345 347 344 345 347 344 342 341 344 345
350 347 347 345 344 344 341 339 340 341 345 347 343 339 343 343 343 347 350 349 350 349 347 343 345 346 347 346 349 349 346 345 346 348 348 348 347 346 346 342 345 344 342
349 349 344 340 340 339 338 339 340 344 345 343 340 339 342 345 346 349 350 350 350 350 348 344 342 341 346 347 346 346 348 347 348 348 348 348 348 347 347 343 341 340 340
349 346 340 335 336 336 337 342 347 347 346 344 343 342 345 347 348 349 350 349 350 351 347 347 346 347 347 347 346 346 346 348 347 349 347 347 347 345 346 343 339 340 341
348 347 344 338 342 342 343 346 348 348 349 348 348 347 348 348 348 349 351 350 350 351 351 351 351 349 348 349 349 349 348 344 347 348 348 347 348 346 345 343 339 338 338
347 347 347 347 348 348 346 346 348 349 349 349 350 351 350 349 349 348 349 350 351 349 350 351 351 352 351 351 350 347 348 346 345 348 348 348 347 347 345 344 342 339 339
345 347 348 348 349 350 348 347 347 347 349 351 349 349 349 350 350 349 347 349 350 350 350 351 350 350 351 351 351 350 346 348 348 348 348 348 348 347 346 345 344 343 341
342 344 347 348 349 350 349 348 349 348 349 349 349 348 348 349 349 350 347 348 349 348 348 348 348 348 351 352 351 351 349 349 350 349 345 347 348 349 347 346 346 345 344
342 342 345 348 348 350 350 349 350 350 349 348 348 347 348 348 348 349 349 347 348 348 347 346 346 348 349 350 351 351 349 349 349 348 347 342 342 346 347 348 348 348 346
342 342 343 345 348 350 348 348 348 347 346 345 343 344 347 348 347 347 348 348 348 349 348 347 345 348 349 349 350 345 344 347 349 348 347 346 344 343 343 343 343 346 348
342 343 343 344 347 347 347 347 347 346 347 346 344 340 340 345 347 346 346 346 347 348 350 348 346 347 347 348 349 348 342 344 341 347 347 347 344 345 341 340 344 346 347
343 343 343 344 344 344 345 345 346 348 349 349 348 347 345 347 348 347 348 347 347 348 349 349 348 346 346 346 346 348 348 347 342 342 344 345 346 346 345 344 342 338 344
343 345 344 344 344 344 345 345 347 347 348 348 349 349 350 350 350 350 350 350 349 350 349 349 348 348 348 347 347 346 347 348 346 343 347 344 345 345 345 345 344 342 345
341 344 346 345 344 344 346 346 347 348 348 350 350 351 351 352 353 354 354 353 353 352 351 349 348 347 346 347 347 346 346 345 344 344 344 344 344 345 345 345 345 345 343

GFSSE_925_thetae_381.txt.gz
Theta_e
352 353 351 351 351 351 349 349 349 347 346 343 346 348 346 346 347 346 349 349 349 349 348 347 348 348 346 345 345 346 349 349 349 349 350 350 350 348 343 350 349 349 350
351 353 350 350 350 351 351 349 348 348 349 346 344 346 345 347 349 347 348 347 346 345 344 347 345 340 341 342 345 346 347 345 348 349 350 350 352 350 349 344 350 349 350
350 352 353 350 351 352 351 350 350 350 350 349 347 345 346 347 348 347 346 345 344 347 343 341 340 340 340 342 343 343 347 345 346 348 349 347 350 351 351 350 342 349 350
350 352 352 350 350 352 351 350 350 350 350 348 348 348 347 347 343 346 344 344 342 345 346 344 342 341 341 342 341 345 347 347 347 340 343 347 349 351 351 351 349 339 338
351 351 352 348 351 352 352 350 351 351 350 349 349 350 349 350 352 350 351 350 347 347 350 348 347 349 343 341 342 341 342 344 349 343 344 347 350 349 350 349 349 347 345
352 350 352 348 353 353 351 350 350 351 351 351 351 351 350 349 351 352 351 350 349 349 347 345 345 348 347 345 342 345 343 342 346 347 343 344 346 344 351 349 350 349 345
351 349 351 349 351 352 350 349 350 350 350 351 352 352 351 351 349 351 351 351 350 349 350 350 351 352 349 347 344 343 345 344 351 350 343 336 343 343 351 349 348 348 345
349 349 349 350 350 351 351 350 350 351 351 352 352 352 351 351 352 351 351 352 352 351 351 350 350 352 348 350 346 346 344 344 349 350 347 344 335 341 348 350 348 347 346
348 349 349 349 351 351 350 350 351 350 351 351 351 351 351 351 352 352 351 351 351 351 352 351 352 351 350 350 345 348 347 348 350 349 347 345 339 338 343 348 347 348 346
347 348 349 349 348 348 347 350 350 351 351 352 352 351 352 352 352 351 350 348 350 351 352 352 351 350 348 351 346 346 345 343 348 348 348 348 343 340 339 344 348 347 345
348 348 349 350 354 350 349 349 350 352 352 352 351 351 352 350 348 348 350 349 348 350 351 350 350 352 349 348 350 350 349 348 347 347 346 345 343 344 342 338 342 344 348
348 350 350 349 351 352 350 350 351 351 350 350 351 352 351 348 349 349 349 347 351 350 352 351 351 347 346 344 344 345 346 348 348 346 345 343 342 345 344 338 339 339 340
347 349 351 351 350 349 350 350 351 351 351 352 353 352 350 349 351 349 349 348 349 349 348 348 349 347 348 345 347 345 347 349 348 347 346 342 344 344 344 343 342 341 339
347 349 349 350 351 350 350 351 350 351 351 350 350 351 350 349 351 350 349 349 350 349 351 351 351 345 350 347 347 348 351 351 349 347 345 342 345 345 344 344 344 342 340
346 347 348 350 351 351 351 351 351 350 350 349 349 350 350 350 350 350 350 350 351 352 352 352 352 351 350 347 348 350 350 350 351 349 349 348 346 346 346 345 346 346 343
347 346 347 349 350 350 350 350 349 348 348 349 349 349 350 349 349 348 349 350 351 352 353 353 354 353 352 351 351 350 350 349 348 350 350 350 348 347 346 347 346 346 346
348 349 349 350 349 349 348 348 348 347 346 347 349 349 348 346 345 345 349 350 351 352 353 354 354 354 354 352 351 351 351 351 349 350 351 351 350 350 348 346 344 344 346
350 351 351 350 350 349 348 346 346 346 346 347 348 350 347 343 341 346 348 350 351 352 353 354 354 351 353 353 353 352 352 352 352 351 350 347 349 350 351 347 345 344 345
351 351 351 350 350 350 343 344 345 344 346 347 350 350 351 348 349 348 350 350 350 350 351 353 352 349 351 351 350 350 349 352 353 352 350 350 351 350 350 351 348 346 345
350 350 351 350 350 349 346 343 345 345 345 346 349 351 351 351 348 350 352 352 352 352 350 351 352 352 353 352 352 350 352 353 352 352 352 351 351 350 350 351 352 351 348
346 349 350 350 348 349 348 346 346 347 348 348 349 350 350 351 352 352 352 352 353 352 352 351 350 352 351 352 350 349 349 351 351 351 352 352 351 349 350 349 350 351 351
343 344 348 347 349 349 349 349 349 350 350 350 350 349 347 347 347 350 350 352 352 352 352 352 351 349 350 350 349 349 351 345 345 349 349 350 350 350 350 348 348 345 349
343 344 344 343 343 346 347 350 350 350 350 350 350 350 349 347 347 348 348 348 350 351 351 352 352 351 350 350 352 349 350 351 346 346 348 349 350 350 349 349 348 346 345
343 344 344 342 343 345 347 349 349 350 350 351 351 351 349 346 346 348 347 347 348 351 350 351 352 351 351 350 349 351 350 348 351 352 346 347 347 349 348 348 348 348 347
343 344 344 342 342 342 345 346 350 350 350 351 351 351 349 348 346 346 345 344 346 351 350 351 349 350 349 349 349 350 351 350 350 350 352 348 346 348 347 346 346 347 348
344 344 344 343 342 342 343 344 346 348 349 350 351 349 350 350 348 347 347 346 346 347 347 348 349 351 351 350 351 351 351 351 351 350 352 351 349 348 348 348 347 347 347